Home > Weather > Whitby > Past weeks

Flag for Canada Past Weather in Whitby, Ontario, Canada — Yesterday and Last 2 Weeks

Now
75 °F

Mostly cloudy.


Feels Like: 77 °F
Forecast: 71 / 83 °F
Wind: 6 mph from South

Location: Toronto Buttonville

Current Time: Aug 25, 2016 at 12:51:57 AM

Latest Report: Aug 25, 2016 at 12:00 AM


Visibility: 15 mi

Pressure: 29.95 "Hg

Humidity: 65%

Dew Point: 63 °F

Location of WhitbyLocation

Past Weather in Whitby — Graph

°F

Whitby Temperature Yesterday

Maximum temperature yesterday: 84 °F (at 3:00 PM)
Minimum temperature yesterday: 61 °F (at 6:00 AM)
Average temperature yesterday: 74 °F

High & Low Weather Summary for the Past Weeks

 TemperatureHumidityPressure
High95 °F (Aug 12, 3:00 PM)100% (Aug 16, 4:00 AM)30.26 "Hg (Aug 16, 4:00 AM)
Low54 °F (Aug 22, 6:00 AM)32% (Aug 10, 2:00 PM)29.57 "Hg (Aug 21, 5:00 AM)
Average74 °F70%29.97 "Hg
* Reported Aug 9 11:00 PM — Aug 24 11:00 PM, Whitby, Weather by CustomWeather, © 2016

Note: Actual official high and low records may vary slightly from our data, if they occured in-between our weather recording intervals... More about our weather records

Advertising

Whitby Weather History for the Previous 24 Hours

Scroll right to see more
 ConditionsComfort  
Time TempWeatherWind HumidityBarometerVisibility
11:00 PM
Wed, Aug 24
77 °FPartly cloudy.6 mph57%29.98 "Hg15 mi
10:00 PM77 °FPartly cloudy.6 mph57%29.98 "Hg15 mi
9:00 PM79 °FPartly sunny.7 mph51%30.00 "Hg15 mi
8:00 PM79 °FPartly sunny.12 mph51%30.00 "Hg15 mi
7:00 PM81 °FBroken clouds.13 mph51%30.00 "Hg15 mi
6:00 PM81 °FPartly sunny.14 mph48%30.02 "Hg15 mi
5:00 PM81 °FPartly sunny.16 mph45%30.03 "Hg15 mi
4:00 PM84 °FBroken clouds.14 mph43%30.05 "Hg15 mi
3:00 PM84 °FScattered clouds.16 mph43%30.07 "Hg15 mi
2:00 PM82 °FPassing clouds.20 mph48%30.09 "Hg15 mi
1:00 PM81 °FPassing clouds.14 mph54%30.11 "Hg15 mi
12:00 PM79 °FScattered clouds.12 mph54%30.14 "Hg15 mi
11:00 AM77 °FPartly sunny.9 mph61%30.16 "Hg15 mi
10:00 AM75 °FPassing clouds.10 mph65%30.17 "Hg15 mi
9:00 AM70 °FPassing clouds.3 mph73%30.19 "Hg15 mi
8:00 AM66 °FPassing clouds.2 mph78%30.21 "Hg15 mi
7:00 AM61 °FPassing clouds.No wind83%30.22 "Hg15 mi
6:00 AM61 °FPassing clouds.2 mph83%30.20 "Hg15 mi
5:00 AM64 °FClear.No wind73%30.19 "Hg15 mi
4:00 AM64 °FClear.2 mph73%30.19 "Hg15 mi
3:00 AM64 °FClear.2 mph73%30.18 "Hg15 mi
2:00 AM66 °FClear.3 mph68%30.18 "Hg15 mi
1:00 AM70 °FPassing clouds.3 mph60%30.20 "Hg15 mi
12:00 AM72 °FPassing clouds.3 mph57%30.21 "Hg15 mi
Weather by CustomWeather, © 2016

See weather overviewHow to use our weather pages